Vorticity
nan nan nan nan nan nan nan nan nan nan nan nan nan nan nan nan nan nan nan nan nan nan nan nan nan nan nan nan nan nan nan nan nan nan nan nan nan nan nan nan nan nan nan
nan 8 6 6 6 6 5 4 5 5 6 5 5 3 2 4 5 5 5 5 6 6 6 6 6 6 7 7 7 6 6 7 6 4 -0 3 6 6 5 6 12 8 nan
nan 7 5 5 7 5 5 4 5 5 6 5 6 5 5 4 4 5 5 5 6 6 6 6 6 7 7 7 8 9 8 9 7 4 4 5 7 8 7 8 7 5 nan
nan 7 7 6 6 5 4 5 5 5 5 6 6 5 5 5 6 5 6 6 5 6 6 6 7 7 7 9 9 7 7 9 11 8 6 8 6 6 6 4 4 5 nan
nan 5 10 8 6 7 5 6 6 5 5 6 6 6 6 5 6 6 5 6 6 5 6 6 7 7 8 7 7 6 5 4 5 9 8 5 4 2 3 5 6 4 nan
nan 5 8 8 6 7 6 6 6 5 6 5 5 6 5 6 5 6 5 6 6 6 6 6 7 7 7 6 5 4 4 5 6 2 4 4 5 5 5 6 6 6 nan
nan 6 5 7 6 7 6 6 6 6 6 5 6 6 6 6 5 6 5 6 6 6 7 7 7 8 6 5 5 5 3 7 9 4 4 5 6 7 8 8 7 9 nan
nan 8 8 6 6 6 6 6 6 7 6 5 6 6 6 6 6 6 6 6 7 7 7 7 7 7 6 5 5 5 6 7 7 5 6 5 7 9 8 7 6 7 nan
nan 7 7 8 5 5 6 6 7 7 6 6 5 7 6 6 6 6 6 6 7 8 7 7 7 6 5 5 5 4 3 7 11 6 6 5 6 6 9 11 9 7 nan
nan 8 7 7 6 6 6 7 8 7 7 8 7 6 6 5 6 5 6 6 6 6 7 8 9 6 5 5 5 4 3 8 6 6 5 7 8 3 5 8 8 6 nan
nan 6 6 6 6 8 7 5 5 6 5 4 5 5 5 7 8 3 5 9 8 6 6 8 8 4 0 2 4 3 5 8 5 6 6 8 8 5 3 5 5 5 nan
nan 8 8 8 6 6 8 8 4 3 5 5 5 2 3 7 6 5 4 8 6 5 5 5 5 4 1 0 4 5 9 8 6 7 8 7 6 8 7 7 7 6 nan
nan 8 10 7 6 6 5 5 6 7 8 9 8 5 5 5 6 5 4 5 6 3 4 5 2 3 8 6 7 10 8 6 6 6 9 9 7 6 5 5 6 6 nan
nan 13 6 6 7 5 6 8 6 6 7 8 9 6 3 6 7 5 6 7 5 6 7 4 7 9 8 8 7 8 7 7 8 5 4 8 9 7 6 5 5 6 nan
nan 9 11 9 4 6 6 7 7 7 6 8 9 7 6 7 7 7 7 7 7 8 6 7 8 7 7 7 7 7 8 8 8 7 2 4 9 8 7 6 6 7 nan
nan 10 12 9 5 5 7 7 5 8 8 7 8 9 7 6 7 7 7 7 8 8 8 8 8 7 8 8 8 6 6 8 8 8 5 1 6 10 5 5 6 6 nan
nan 13 13 9 8 5 8 7 5 7 8 7 9 9 7 7 7 6 7 7 8 9 8 7 7 7 7 8 8 6 6 7 7 6 7 6 0 1 6 6 7 6 nan
nan 12 12 7 11 9 4 8 6 8 7 8 8 9 8 7 7 6 7 8 8 8 7 7 7 7 7 8 7 7 7 7 7 6 8 7 6 3 0 5 6 6 nan
nan 12 12 8 7 11 8 7 13 7 6 7 8 9 9 8 7 6 7 9 8 7 8 8 8 8 7 8 8 8 8 7 6 6 7 7 7 8 5 3 2 4 nan
nan 12 8 10 7 8 13 11 15 6 9 8 8 10 9 8 8 7 8 8 7 7 8 9 9 9 8 8 7 7 8 8 8 8 6 5 7 7 6 5 5 2 nan
nan 12 15 10 6 6 8 11 7 15 10 8 10 11 8 8 8 7 8 8 7 9 9 8 9 7 7 6 4 5 7 8 8 7 6 6 7 5 6 7 8 7 nan
nan 11 14 12 9 6 4 9 6 10 9 12 10 10 9 9 7 7 8 8 8 9 10 8 6 3 6 7 7 6 6 6 8 7 7 7 6 5 4 6 8 8 nan
nan 12 11 11 7 8 8 3 6 6 10 10 11 9 10 9 8 9 8 9 9 8 8 8 7 6 4 7 7 8 10 10 9 8 8 6 4 4 5 5 7 7 nan
nan 18 10 9 9 8 10 11 8 1 7 9 9 11 13 10 9 9 9 9 8 10 10 8 8 9 9 8 6 8 10 12 11 9 9 8 7 6 4 6 8 6 nan
nan 18 11 9 10 9 10 10 8 8 4 10 13 11 9 9 9 9 9 9 8 9 11 10 10 10 11 10 8 8 7 7 10 11 12 10 8 8 5 7 8 7 nan
nan nan nan nan nan nan nan nan nan nan nan nan nan nan nan nan nan nan nan nan nan nan nan nan nan nan nan nan nan nan nan nan nan nan nan nan nan nan nan nan nan nan nan
CAPE
309 611 1364 1484 1249 1611 1175 835 558 460 557 626 533 576 675 552 419 265 105 19 2 0 0 0 0 1 0 0 0 0 0 0 0 26 146 205 99 91 139 87 90 102 221
350 611 1722 1834 1832 1723 1075 745 386 332 378 241 268 231 243 337 221 33 0 0 0 0 0 1 0 0 0 0 0 0 0 0 0 0 0 204 255 115 166 209 363 185 195
342 624 1481 1935 1931 1717 1025 588 273 217 159 104 86 75 91 69 4 1 0 0 0 2 5 4 0 0 0 0 0 0 6 58 0 0 0 28 74 156 165 141 97 106 73
349 689 1291 2066 2009 1667 804 361 143 138 57 27 12 10 8 6 5 3 2 3 5 7 3 1 0 0 0 3 6 25 148 85 87 40 36 106 78 91 88 74 61 55 41
445 771 1622 2085 1884 1244 548 242 122 55 19 12 10 8 7 7 7 7 5 4 1 1 0 0 0 0 5 14 36 48 7 0 23 30 39 47 33 23 10 7 8 9 2
640 845 1760 1869 1604 1081 585 215 51 17 23 14 13 10 11 10 8 6 3 1 0 0 0 0 1 3 16 25 32 7 0 0 11 4 8 5 7 1 0 0 2 2 0
700 889 1973 1735 1504 1079 460 301 200 22 16 14 12 12 10 12 6 2 1 0 0 0 0 0 2 14 16 31 6 0 0 0 12 16 18 4 0 0 0 0 0 0 3
859 905 1566 1430 1290 808 471 295 213 140 14 13 14 11 15 8 3 0 0 0 0 0 0 0 2 22 24 8 0 0 0 0 0 0 2 1 0 1 34 26 8 24 62
1064 1059 1420 1212 733 481 319 230 192 103 16 21 21 16 15 5 1 0 0 0 0 0 0 0 2 18 11 0 0 0 0 0 0 0 1 0 32 72 54 23 22 16 42
1205 1399 1427 993 457 187 77 169 116 44 30 29 9 19 13 8 5 0 0 0 0 0 0 0 1 14 4 0 0 0 0 0 0 0 1 27 13 19 43 55 37 34 40
1127 1331 1115 646 244 87 40 15 30 31 29 28 20 7 0 0 0 0 0 0 0 0 0 1 16 13 0 0 0 0 0 0 0 1 5 34 22 15 16 5 13 24 11
1025 1075 597 681 137 55 4 7 14 5 14 15 10 0 0 0 0 0 0 0 0 0 0 0 8 0 0 0 0 0 0 0 0 2 13 39 13 15 9 2 8 9 7
734 458 283 294 42 45 15 10 13 4 10 9 4 0 0 0 0 0 0 0 0 0 0 0 0 0 0 0 0 0 0 0 0 13 25 43 13 25 21 23 16 13 8
48 338 72 24 5 11 1 5 8 6 11 5 0 0 0 0 0 0 0 0 0 0 0 0 0 0 0 0 0 0 0 0 1 9 22 40 18 16 21 18 10 5 5
0 3 50 55 0 0 0 2 6 15 10 1 0 0 0 0 0 0 0 0 0 0 0 0 0 0 0 0 0 0 0 0 0 4 17 20 21 13 10 2 1 2 3
0 0 9 3 1 0 0 0 2 9 8 0 0 0 0 0 0 0 0 0 0 0 0 0 0 0 0 0 0 0 0 0 0 2 8 1 0 2 0 0 0 0 0
0 0 175 1 1 1 0 0 2 4 3 0 0 0 0 0 0 0 0 0 0 0 0 0 0 0 0 0 0 0 0 0 0 0 0 0 0 0 0 0 0 0 0
0 0 260 8 2 4 0 0 5 3 0 0 0 0 0 0 0 0 0 0 0 0 0 0 0 0 0 0 0 0 0 0 0 0 0 0 0 0 0 0 0 0 0
0 0 140 180 2 3 3 0 9 0 0 0 0 0 0 0 0 0 0 0 0 0 0 0 0 0 0 0 0 0 0 1 0 0 0 0 0 0 0 0 0 0 0
0 0 1 126 13 1 4 4 0 0 0 0 0 0 0 0 0 0 0 0 0 0 0 0 0 0 0 0 0 0 0 1 0 0 0 0 0 0 0 0 0 0 0
0 0 0 213 16 1 0 0 0 0 0 0 0 0 0 0 0 0 0 0 0 0 0 0 0 0 0 0 0 0 0 0 0 0 0 0 0 0 0 0 0 0 0
0 0 209 206 1 2 1 2 0 0 0 0 0 0 0 0 0 0 0 0 0 0 0 0 0 0 0 0 0 0 0 0 0 0 0 0 0 0 0 0 0 0 0
0 0 265 87 5 2 4 2 1 0 0 0 0 0 0 0 0 0 0 0 0 0 0 0 0 0 0 0 0 0 0 0 0 0 0 0 0 0 0 0 0 0 0
0 0 328 74 2 4 5 2 0 0 0 0 0 0 0 0 0 0 0 0 0 0 0 0 0 0 0 0 0 0 0 0 0 0 0 0 0 0 0 0 0 0 0
0 118 471 32 3 2 2 0 0 0 0 0 0 0 0 0 0 0 0 0 0 0 0 0 0 0 0 0 0 0 0 0 0 0 0 0 0 0 0 0 0 0 0
3 321 355 14 6 5 2 5 3 3 0 0 0 0 0 0 0 0 0 0 0 0 0 0 0 0 0 0 0 0 0 0 0 0 0 0 0 0 0 0 0 0 0